DIRECTV 14

Last updated on Sun Jun 21 2026 00:03:06 GMT+0000 (Coordinated Universal Time)

1 40333U 14078B 26171.35461541 -.00000130 00000+0 00000+0 0 9992 2 40333 0.0110 22.7054 0000249 291.5498 342.7307 1.00270509 42073
UTC large
Height (km)
Speed (km/s)
/
Latitude / Longitude
Inclination (degrees)
Orbital Period (minutes)
Azimuth
Elevation
Range (km)
Doppler Factor

Next 0 passes for location: London (51.5072 / 0.1276)

No passes found over London.
DIRECTV 14